Regional Weather Roundup
Issued by NWS Sterling, VA

Home | Current Version | Previous Version | Text Only | Print | Product List | Glossary On
Versions: 1 2 3 4 5 6 7 8 9 10 11 12 13 14 15 16 17 18 19 20 21 22 23 24 25 26 27
000
ASUS41 KLWX 270910
RWRLWX

REGIONAL WEATHER ROUNDUP
NATIONAL WEATHER SERVICE BALTIMORE MD/WASHINGTON DC
500 AM EDT WED JUL 27 2016

Note: "FAIR" indicates few or no clouds below 12,000 feet
with no significant weather and/or obstructions to visibility.
 TC=TEMPERATURE CELSIUS

 * =Non NWS site. Station does not report precipitation (e.g. rain,
    snow, etc.), thunder, or fog.

DCZ001-MDZ009-015-VAZ040>042-051-053>054-271000-
WASHINGTON METRO

CITY           SKY/WX    TMP DP  RH WIND       PRES   REMARKS
WASHINGTON NAT CLOUDY    82  72  71 CALM      29.93S
DULLES         MOCLDY    78  72  81 CALM      29.94S
ANDREWS AFB    CLOUDY    77  72  84 SW1       29.93S
FT BELVOIR     FAIR      76  72  86 SE2       29.93S
QUANTICO       FAIR      78  72  81 W3        29.93S
COLLEGE PARK*  FAIR      77  72  83 CALM      29.93R
LEESBURG*      FAIR      79  73  83 W12       29.95S
MANASSAS*      FAIR      75  75 100 CALM      29.94S
GAITHERSBURG*  CLOUDY    75  70  83 CALM      29.98S

$$

MDZ006>007-011-014-271000-
BALTIMORE METRO

CITY           SKY/WX    TMP DP  RH WIND       PRES   REMARKS
BWI AIRPORT    CLOUDY    79  70  74 W3        29.92S
MD SCIENCE CTR   N/A     84  64  50 MISG      29.92S
MARTIN STATE   CLOUDY    77  73  88 W3        29.93R
ANNAPOLIS      CLOUDY    81  75  82 NW3       29.91S
FORT MEADE*    CLOUDY    73  72  94 CALM      29.95S

$$

MDZ012-015-019>023-271000-
MARYLAND EASTERN SHORE

CITY           SKY/WX    TMP DP  RH WIND       PRES   REMARKS
OCEAN CITY     CLOUDY    77  75  93 CALM      29.92F
SALISBURY      MOCLDY    76  75  97 CALM      29.92S
BAY BRIDGE AP* CLOUDY    82  73  74 NW5       29.91S
CAMBRIDGE*     CLOUDY    79  77  94 CALM      29.92R
EASTON*        CLOUDY    82  79  92 CALM      29.95S HX  92

$$

MDZ017>025-271000-
SOUTHERN MARYLAND

CITY           SKY/WX    TMP DP  RH WIND       PRES   REMARKS
PATUXENT RIVER CLOUDY    79  73  82 CALM      29.91F
ST INIGOES     CLOUDY    81  74  79 NW3       29.91F
LEONARDTOWN*     N/A     77  73  88 CALM      29.94S

$$

MDZ003>005-271000-
NORTH CENTRAL MARYLAND

CITY           SKY/WX    TMP DP  RH WIND       PRES   REMARKS
FREDERICK*     CLOUDY    73  73 100 CALM      29.97S
HAGERSTOWN APT CLOUDY    75  70  84 E5        29.97R

$$

MDZ501>502-271000-
WESTERN MARYLAND

CITY           SKY/WX    TMP DP  RH WIND       PRES   REMARKS
OAKLAND*       MOCLDY    66  64  94 CALM      30.11R FOG
CUMBERLAND*    MOCLDY    75  66  73 N3        30.03R

$$

VAZ025>031-271000-
SHENANDOAH VALLEY

CITY           SKY/WX    TMP DP  RH WIND       PRES   REMARKS
WINCHESTER*    FAIR      75  72  88 W3        29.97S
FRONT ROYAL*   FAIR      73  72  94 S5        29.96F
LURAY*         FAIR     N/A N/A N/A CALM      29.99S HAZE
NEW MARKET*    FAIR     N/A N/A N/A CALM      29.98S
STAUNTON*      FOG       70  70 100 CALM      30.03S VSB 1/4
WAYNESBORO*    FAIR      70  69  97 CALM      30.01F

$$

WVZ021-048>050-054>055-271000-
EASTERN WEST VIRGINIA PANHANDLE

CITY           SKY/WX    TMP DP  RH WIND       PRES   REMARKS
MARTINSBURG    FAIR      74  70  87 CALM      29.96S
PETERSBURG*    MOCLDY    71  70  98 CALM      30.00R

$$

VAZ036>039-050-271000-
CENTRAL FOOTHILLS

CITY           SKY/WX    TMP DP  RH WIND       PRES   REMARKS
CHARLOTTESVILL FAIR      75  72  90 CALM      29.95F
CULPEPER*      FAIR      73  73 100 CALM      29.96R FOG
ORANGE*          N/A     73  73 100 CALM      29.96S FOG
GORDONSVILLE*  FAIR      73  72  98 CALM      29.94S
WARRENTON*     FAIR      74  69  85 CALM      29.94R

$$

VAZ055>057-271000-
NORTH AND CENTRAL PIEDMONT

CITY           SKY/WX    TMP DP  RH WIND       PRES   REMARKS
FREDERICKSBRG* FAIR      75  75 100 CALM      29.93R
STAFFORD*      FAIR      73  70  91 CALM      29.97S

$$

NCZ024-NYZ072-PAZ021-071-VAZ022-071-271000-
OTHER REGIONAL OBSERVATIONS

CITY           SKY/WX    TMP DP  RH WIND       PRES   REMARKS
NEW YORK CITY  PTCLDY    75  63  66 CALM      29.97R
PHILADELPHIA   CLOUDY    78  66  66 NE6       29.93S
PITTSBURGH     CLOUDY    71  62  73 CALM      30.01S
ROANOKE        FAIR      75  72  90 CALM      30.03S
RICHMOND       FAIR      73  71  93 CALM      29.94F
RALEIGH        MOCLDY    78  75  90 CALM      29.96S

$$

ANZ530>537-271000-
MARINE OBSERVATIONS

STATION/POSITION TIME  TEMP    WIND        PRES
                       AIR SEA DIR/SP/G
                 (UTC) (F)     (DEG/KT/KT) (MB)
THOMAS PT LIGHT  0900   81 85  270/  9/ 10 1014.5R
BALT KEY BRIDGE  0842   83     290/  5/  6 1012.8S
COVE POINT       0842   80     330/  2/  6 1013.8R
LEWISETTA        0842   79 87  280/  7/  8 1013.0S
SOLOMONS ISLAND  0842   81 85  340/  5/  6   N/A
PINEY POINT      0848          280/  7/  8   N/A

$$





USA.gov is the U.S. government's official web portal to all federal, state and local government web resources and services.